Location: Stull Observatory
(42.2506°N, 77.7903°W)
Time: 05:44:51
(UTC-04:00)

Okean O Rocket - Visible Passes

Search period start: 26 April 2015 00:00
Search period end: 06 May 2015 00:00
Orbit: 623 x 647 km, 98.0° (Epoch: 26 April)

Date Brightness Start Highest point End Pass type
(mag) Time Alt. Az. Time Alt. Az. Time Alt. Az.
26 Apr 3.3 03:41:26 10° NE 03:45:11 28° E 03:47:21 19° SE visible
26 Apr 2.7 05:17:52 10° N 05:21:34 27° WNW 05:24:50 12° WSW visible
27 Apr 2.4 04:03:03 10° NNE 04:07:17 48° E 04:09:40 23° SSE visible
27 Apr 3.3 05:40:30 10° NNW 05:43:23 17° WNW 05:46:06 10° WSW visible
28 Apr 1.6 04:24:53 10° NNE 04:29:17 84° ESE 04:32:00 23° S visible
29 Apr 4.2 03:12:17 10° ENE 03:14:22 14° E 03:16:41 10° ESE visible
29 Apr 1.8 04:46:56 10° N 04:51:13 56° WNW 04:54:19 18° SSW visible
30 Apr 3.6 03:33:08 10° NE 03:36:35 23° E 03:39:08 15° SE visible
30 Apr 2.5 05:09:10 10° N 05:13:06 33° WNW 05:16:37 12° SW visible
01 May 2.8 03:54:37 10° NNE 03:58:43 39° E 04:01:27 19° SSE visible
01 May 3.1 05:31:39 10° NNW 05:34:55 20° WNW 05:38:06 10° WSW visible
02 May 1.8 04:16:23 10° NNE 04:20:45 68° ESE 04:23:45 20° S visible
03 May 4.4 03:04:43 10° ENE 03:05:43 11° E 03:06:58 10° ESE visible
03 May 1.6 04:38:20 10° N 04:42:42 70° WNW 04:46:03 17° SSW visible
04 May 3.9 03:24:54 10° NE 03:27:58 19° E 03:30:52 11° SE visible
04 May 2.2 05:00:29 10° N 05:04:37 40° WNW 05:08:21 12° SW visible
05 May 3.1 03:46:12 10° NNE 03:50:07 31° E 03:53:10 15° SSE visible
05 May 2.9 05:22:50 10° NNW 05:26:26 25° WNW 05:29:58 10° WSW visible
